SCP
0 0 -0 0 0 0 0 0 0 0 0 0 0 0 0 0 0 0 0 0 0 0 0 0 0 0 0 0 0 0 0 0 0 0 0 0 0 0 0 0 0 0 0 0 0 0 0 0 0
0 0 -0 0 0 0 0 0 0 0 0 0 0 0 0 0 0 0 0 0 0 0 0 0 0 0 0 0 0 0 0 0 0 0 0 0 0 0 0 0 0 0 0 0 0 0 0 0 0
-0 -0 0 0 0 0 0 0 0 0 0 0 0 0 0 0 0 0 0 0 0 0 0 0 0 0 0 0 0 0 0 0 0 0 0 0 0 0 0 0 0 0 0 0 0 0 0 0 0
-0 -0 0 0 0 0 0 0 0 0 0 0 0 0 0 0 0 0 0 0 0 0 0 0 0 0 0 0 0 0 0 0 0 0 0 0 0 0 0 0 0 0 0 0 0 0 0 0 0
0 0 0 0 0 0 0 0 0 0 0 0 0 0 0 0 0 0 0 0 0 0 0 0 0 0 0 0 0 0 0 0 0 0 0 0 0 0 0 0 0 0 0 0 0 0 0 0 0
0 0 0 0 0 0 0 0 0 0 0 0 0 0 0 0 0 0 0 0 0 0 0 0 0 0 0 0 0 0 0 0 0 0 0 0 0 0 0 0 0 0 0 0 0 0 0 0 0
0 0 0 0 0 0 0 0 0 0 0 0 0 0 0 0 0 0 0 0 0 0 0 0 0 0 0 0 0 0 0 0 0 0 0 0 0 0 0 0 0 0 0 0 0 0 0 0 0
0 0 0 0 0 0 0 0 0 0 0 0 0 0 0 0 0 0 0 0 0 0 0 0 0 0 0 0 0 0 0 0 0 0 0 0 0 0 0 0 0 0 0 0 0 0 0 0 0
0 0 0 0 0 0 0 0 0 0 0 0 0 0 0 0 0 0 0 0 0 0 0 0 0 0 0 0 0 0 0 0 0 0 0 0 0 0 0 0 0 0 0 0 0 0 0 0 0
0 0 0 0 0 0 0 0 0 0 0 0 0 0 0 0 0 0 0 0 0 0 0 0 0 0 0 0 0 0 0 0 0 0 0 0 0 0 0 0 0 0 0 0 0 0 0 0 0
0 0 0 0 0 0 0 0 0 0 0 0 0 0 0 0 0 0 0 0 0 0 0 0 0 0 0 0 0 0 0 0 0 0 0 0 0 0 0 0 0 0 0 0 0 0 0 0 0
0 0 0 0 0 0 0 0 0 0 0 0 0 0 0 0 0 0 0 0 0 0 0 0 0 0 0 0 0 0 0 0 0 0 0 0 0 0 0 0 0 0 0 0 0 0 0 0 0
0 0 0 0 0 0 0 0 0 0 0 0 0 0 0 0 0 0 0 0 0 0 0 0 0 0 0 0 0 0 0 0 0 0 0 0 0 0 0 0 0 0 0 0 0 0 0 0 0
0 0 0 0 0 0 0 0 0 0 0 0 0 0 0 0 0 0 0 0 0 0 0 0 0 0 0 0 0 0 0 0 0 0 0 0 0 0 0 0 0 0 0 0 0 0 0 0 0
0 0 0 0 0 0 0 0 0 0 0 0 0 0 0 0 0 0 0 0 0 0 0 0 0 0 0 0 0 0 0 0 0 0 0 0 0 0 0 0 0 0 0 0 0 0 0 0 0
0 0 0 0 0 0 0 0 0 0 0 0 0 0 0 0 0 0 0 0 0 0 0 0 0 0 0 0 0 0 0 0 0 0 0 0 0 0 0 0 0 0 0 0 0 0 0 0 0
0 0 0 0 0 0 0 0 0 0 0 0 0 0 0 0 0 0 0 0 0 0 0 0 0 0 0 0 0 0 0 0 0 0 0 0 0 0 0 0 0 0 0 0 0 0 0 0 0
0 0 0 0 0 0 0 0 0 0 0 0 0 0 0 0 0 0 0 0 0 0 0 0 0 0 0 0 0 0 0 0 0 0 0 0 0 0 0 0 0 0 0 0 0 0 0 0 0
0 0 0 0 0 0 0 0 0 0 0 0 0 0 0 0 0 0 0 0 0 0 0 0 0 0 0 0 0 0 0 0 0 0 0 0 0 0 0 0 0 0 0 0 0 0 0 0 0
0 0 0 0 0 0 0 0 0 0 0 0 0 0 0 0 0 0 0 0 0 0 0 0 0 0 0 0 0 0 0 0 0 0 0 0 0 0 0 0 0 0 0 0 0 0 0 0 0
0 0 0 0 0 0 0 0 0 0 0 0 0 0 0 0 0 0 0 0 0 0 0 0 0 0 0 0 0 0 0 0 0 0 0 0 0 0 0 0 0 0 0 0 0 0 0 0 0
0 0 0 0 0 0 0 0 0 0 0 0 0 0 0 0 0 0 0 0 0 0 0 0 0 0 0 0 0 0 0 0 0 0 0 0 0 0 0 0 0 0 0 0 0 0 0 0 0
0 0 0 0 0 0 0 0 0 0 0 0 0 0 0 0 0 0 0 0 0 0 0 0 0 0 0 0 0 0 0 0 0 0 0 0 0 0 0 0 0 0 0 0 0 0 0 0 0
0 0 0 0 0 0 0 0 0 0 0 0 0 0 0 0 0 0 0 0 0 0 0 0 0 0 0 0 0 0 0 0 0 0 0 0 0 0 0 0 0 0 0 0 0 0 0 0 0
0 0 0 0 0 0 0 0 0 0 0 0 0 0 0 0 0 0 0 0 0 0 0 0 0 0 0 0 0 0 0 0 0 0 0 0 0 0 0 0 0 0 0 0 0 0 0 0 0
0 0 0 0 0 0 0 0 0 0 0 0 0 0 0 0 0 0 0 0 0 0 0 0 0 0 0 0 0 0 0 0 0 0 0 0 0 0 0 0 0 0 0 0 0 0 0 0 0
0 0 0 0 0 0 0 0 0 0 0 0 0 0 0 0 0 0 0 0 0 0 0 0 0 0 0 0 0 0 0 0 0 0 0 0 0 0 0 0 0 0 0 0 0 0 0 0 0
0 0 0 0 0 0 0 0 0 0 0 0 0 0 0 0 0 0 0 0 0 0 0 0 0 0 0 0 0 0 0 0 0 0 0 0 0 0 0 0 0 0 0 0 0 0 0 0 0
0 0 0 0 0 0 0 0 0 0 0 0 0 0 0 0 0 0 0 0 0 0 0 0 0 0 0 0 0 0 0 0 0 0 0 0 0 0 0 0 0 0 0 0 0 0 0 0 0
0 0 0 0 0 0 0 0 0 0 0 0 0 0 0 0 0 0 0 0 0 0 0 0 0 0 0 0 0 0 0 0 0 0 0 0 0 0 0 0 0 0 0 0 0 0 0 0 0
Wind_Speed
3 2 2 4 7 5 2 4 2 3 3 2 1 3 5 6 6 6 2 8 6 10 14 18 22 20 19 17 16 15 13 12 11 10 9 9 9 8 8 8 8 8 9 9 10 10 10 10 11
1 1 4 6 6 1 4 4 4 4 2 1 0 1 2 5 4 4 2 7 8 12 13 12 21 21 19 18 17 15 14 13 12 11 10 9 9 8 8 7 7 7 8 8 8 9 9 9 10
1 3 5 5 4 3 4 3 4 3 1 0 1 1 3 5 3 3 3 8 8 11 12 13 23 21 20 18 17 16 15 14 13 12 11 10 9 8 7 7 7 7 7 7 7 7 8 8 8
3 5 6 5 1 3 4 5 3 3 2 0 1 4 5 3 2 2 4 10 10 10 10 12 23 21 20 19 18 17 16 15 14 13 12 11 10 9 8 7 7 6 6 6 6 6 6 7 7
4 5 5 3 3 4 4 4 2 2 2 1 2 3 6 2 1 3 7 10 11 10 9 10 22 21 20 19 18 17 16 15 14 13 12 11 10 9 8 7 7 6 5 5 5 5 5 5 5
5 5 4 2 5 5 5 3 2 2 3 2 3 3 8 2 2 4 7 8 8 9 9 8 21 21 20 19 19 18 17 16 15 14 13 12 11 10 9 8 7 7 6 5 4 4 3 3 3
5 4 2 2 4 6 4 2 3 3 4 5 5 4 7 3 2 4 6 7 7 7 8 7 9 14 19 20 19 18 17 16 16 15 14 13 12 11 10 9 8 7 6 5 4 3 3 2 2
5 5 1 1 3 6 4 2 2 4 7 3 6 6 8 2 3 5 5 5 6 7 8 8 6 7 9 11 18 18 17 17 16 15 14 13 12 11 11 9 9 8 7 6 5 4 3 3 2
4 5 2 4 4 6 3 3 4 2 3 3 5 7 4 3 6 7 5 4 5 8 8 8 7 7 7 7 12 15 16 16 15 12 14 11 4 3 4 7 9 9 9 8 7 6 5 4 3
5 2 6 5 5 5 5 4 5 4 5 5 6 5 1 4 6 9 9 12 13 14 11 9 9 7 7 7 6 6 6 7 7 5 5 4 4 3 3 7 11 10 10 9 9 8 6 3 1
3 5 5 5 5 4 4 5 3 3 8 9 9 8 2 5 7 10 11 11 15 12 12 11 10 8 8 6 5 4 3 4 5 6 6 5 4 2 2 1 3 3 4 1 2 2 1 2 1
2 5 4 5 2 3 4 4 3 5 10 5 4 5 2 6 10 13 14 12 9 8 12 11 10 8 8 6 5 5 4 4 4 5 7 5 3 3 3 2 2 1 0 1 1 1 1 2 2
3 5 4 5 6 5 5 5 5 7 8 6 4 3 3 6 9 10 10 8 8 10 10 10 10 10 8 7 5 6 5 5 5 5 6 7 5 5 4 3 3 3 2 3 3 3 3 4 4
2 4 7 7 5 2 2 3 2 7 5 7 7 6 5 6 7 6 7 9 10 11 10 10 11 10 9 8 7 6 5 5 5 5 7 8 6 6 5 5 4 4 4 4 4 5 4 4 4
2 5 8 3 3 2 2 7 3 5 7 9 9 8 8 6 5 6 8 9 10 9 8 10 11 10 10 9 8 5 5 5 6 6 7 8 7 7 7 6 6 6 5 5 4 5 4 4 5
3 4 5 6 4 4 3 7 6 5 7 8 8 8 8 8 6 6 6 6 5 6 7 9 10 10 10 9 7 5 5 6 6 5 6 8 9 8 7 7 8 7 5 5 5 5 5 6 6
4 3 4 8 4 4 2 8 8 6 5 5 7 8 9 9 9 9 7 4 2 4 5 7 9 10 10 8 5 5 5 6 5 5 6 8 9 9 8 8 7 6 6 6 7 6 6 7 8
2 3 4 6 5 4 4 8 10 7 3 3 5 7 8 10 10 10 9 5 2 1 3 5 6 6 6 5 4 3 4 4 4 6 7 8 9 10 9 8 8 7 6 7 7 8 7 6 6
2 3 6 7 4 3 5 7 8 5 2 4 6 7 8 8 8 9 10 8 6 4 2 2 4 4 5 4 4 4 5 4 4 6 8 9 9 10 11 10 8 8 10 11 11 8 8 8 4
2 3 6 6 2 2 5 6 5 1 1 1 3 5 7 9 11 12 11 10 8 5 3 1 2 3 5 4 3 3 3 3 4 5 7 10 11 11 11 12 10 9 9 10 10 9 6 5 6
3 5 5 5 6 3 4 5 2 1 2 2 3 3 5 6 8 9 10 9 8 7 4 1 1 2 3 3 2 1 0 1 2 4 6 9 11 12 12 13 12 11 11 11 13 12 11 10 7
4 4 4 2 3 4 3 3 5 2 3 2 2 4 5 6 6 7 8 9 8 6 4 3 1 0 2 3 3 5 5 6 7 5 5 6 9 12 13 13 13 12 11 13 13 13 12 11 10
5 0 1 0 1 2 2 1 8 2 3 3 2 1 3 4 5 6 7 6 6 6 5 4 3 2 0 2 3 4 6 7 6 4 6 6 7 10 12 13 12 13 12 13 14 12 13 12 13
2 4 3 4 3 2 1 2 6 3 4 3 2 1 1 3 5 6 6 6 7 7 6 6 5 4 2 1 3 4 7 8 8 8 7 7 5 6 10 11 12 13 12 13 15 14 13 14 15
4 5 5 5 4 4 2 2 8 4 3 3 3 2 0 2 4 5 7 8 8 8 7 6 6 5 4 3 3 5 7 7 9 9 8 8 6 6 9 9 11 11 13 14 13 13 14 15 15
2 5 4 2 3 6 4 5 7 3 3 0 2 2 2 2 3 4 5 5 6 6 7 7 6 5 5 4 5 5 6 5 6 8 7 8 7 8 8 8 10 12 13 13 13 12 14 13 16
4 2 4 5 1 3 6 7 8 1 3 3 3 3 2 2 3 3 4 5 5 6 6 6 6 6 6 6 6 6 6 5 7 8 7 7 8 8 9 9 9 10 11 13 12 11 14 14 15
2 7 5 4 1 4 7 6 5 2 1 1 2 2 2 2 3 4 4 4 4 5 5 6 5 5 6 6 6 6 6 6 7 7 8 9 9 9 9 9 10 10 11 11 11 11 12 14 14
4 3 4 4 4 4 4 8 5 4 2 2 1 1 2 2 3 3 3 4 5 5 6 6 6 6 7 7 7 7 7 7 7 7 9 9 9 9 10 10 10 10 11 10 10 12 12 14 15
4 5 7 4 4 4 3 9 1 2 1 2 1 1 2 2 2 3 4 5 6 6 7 7 7 7 7 7 7 8 8 8 9 9 10 10 10 10 10 10 11 11 11 10 11 13 13 13 15
Wind_Direction
14 66 73 57 54 49 279 260 250 268 253 245 184 172 180 186 184 235 269 158 157 156 170 185 176 176 176 175 173 170 168 165 161 156 152 145 138 130 121 112 103 95 89 84 81 77 75 73 73
105 107 55 60 81 52 281 263 256 244 259 353 60 126 212 248 229 251 236 179 164 160 169 181 177 177 177 177 175 173 172 170 167 164 159 154 149 141 131 123 114 105 98 92 87 83 80 78 77
127 56 79 73 104 179 260 266 262 282 294 349 301 261 238 245 234 245 211 169 157 163 170 181 177 179 179 180 178 177 176 175 173 172 168 164 160 153 144 135 127 117 109 102 94 89 85 83 83
87 48 55 72 183 224 238 277 290 298 329 221 243 289 272 243 233 230 158 160 157 165 170 183 178 181 182 182 181 181 181 180 179 178 175 173 169 165 157 148 141 134 125 117 107 98 92 89 90
60 74 57 27 289 270 260 275 245 216 271 263 187 262 273 246 84 129 151 164 165 165 171 185 181 183 184 185 184 184 185 184 184 183 182 180 177 173 167 163 159 154 147 135 124 111 101 95 96
57 65 74 299 284 288 280 250 182 210 255 255 201 240 260 235 157 168 164 167 166 164 169 182 186 187 187 188 188 188 189 189 189 189 189 188 185 182 179 177 176 172 168 159 149 135 118 109 105
98 94 152 236 281 295 276 199 201 225 251 241 194 212 271 279 197 158 158 155 158 164 170 185 193 189 191 191 191 191 192 193 194 194 194 194 192 190 189 188 189 188 186 183 179 170 161 150 137
116 100 102 273 267 276 269 259 240 216 247 236 165 199 250 296 104 114 123 141 158 173 181 187 195 188 186 190 195 194 195 197 198 198 198 198 198 198 198 196 200 200 201 202 204 206 206 206 204
85 77 259 246 235 261 269 275 275 255 250 249 216 223 247 107 118 115 123 158 181 193 197 192 194 189 181 180 195 195 197 199 200 201 200 197 185 180 197 196 208 211 213 215 218 222 225 227 242
88 148 236 224 211 243 275 262 269 284 276 271 272 263 143 148 163 170 181 189 195 200 199 197 195 189 180 182 186 186 187 190 188 175 183 159 139 156 160 201 213 221 224 227 228 230 235 220 53
150 204 238 251 239 246 270 266 241 228 266 252 258 274 222 190 202 206 206 202 204 201 198 199 196 188 183 181 176 174 172 171 170 165 157 141 138 149 155 170 229 252 254 270 276 303 67 107 164
210 247 242 264 264 250 247 269 272 222 244 279 275 274 222 216 217 217 217 217 208 201 203 199 193 190 190 182 179 173 172 173 171 167 158 150 152 163 166 178 195 203 184 201 205 194 198 205 215
246 272 275 265 283 263 266 260 263 266 282 314 315 318 270 245 237 233 232 228 210 212 206 199 194 193 188 186 184 181 183 181 175 169 171 167 169 178 182 190 195 205 199 204 213 218 224 230 233
285 292 295 288 286 265 270 287 251 282 328 343 353 336 309 276 261 255 243 233 218 214 206 196 197 195 188 193 193 188 183 177 174 180 181 179 179 181 184 194 201 208 206 206 208 215 221 229 230
322 322 322 319 348 335 331 326 256 293 345 352 349 340 332 319 301 269 254 240 227 216 200 194 197 193 194 198 196 188 182 178 186 189 186 188 188 187 190 198 207 212 205 206 211 223 224 236 236
38 16 327 309 349 344 13 298 286 349 1 351 349 349 347 338 326 304 290 259 232 206 193 193 197 195 199 200 197 190 184 189 195 190 190 197 198 193 194 205 216 208 197 200 209 213 221 233 234
23 353 299 304 334 355 2 275 290 343 359 359 356 355 355 354 356 345 332 299 242 198 183 184 193 193 196 195 192 192 188 200 199 194 200 203 204 202 204 215 219 198 200 208 218 213 210 228 235
284 294 288 284 304 342 292 274 298 331 1 9 2 1 3 6 354 345 354 1 29 130 163 176 189 188 178 175 179 192 211 215 209 208 213 207 209 208 212 223 219 197 204 215 216 224 215 224 232
221 245 272 270 285 311 284 289 301 321 21 24 12 6 3 355 342 2 16 27 43 52 85 159 176 174 158 161 181 201 225 222 223 223 220 214 214 211 214 227 220 208 217 224 218 218 223 230 206
211 261 275 289 310 298 304 296 299 330 15 5 8 6 1 355 0 7 15 25 30 32 34 67 175 176 179 181 171 186 200 219 221 224 226 221 220 219 220 225 228 218 223 228 221 210 212 221 184
237 220 246 280 325 360 338 330 338 3 8 13 23 14 8 11 2 360 8 16 21 19 7 8 213 189 187 171 146 129 99 302 259 234 233 229 226 225 226 228 228 225 221 229 226 218 215 227 211
266 238 221 269 337 313 21 309 285 293 315 320 348 4 6 8 9 8 9 11 13 4 5 13 17 146 176 168 177 196 216 237 241 235 237 234 224 228 228 231 230 230 226 230 231 223 220 222 227
226 58 164 229 180 326 358 195 286 309 255 253 257 315 356 11 15 13 10 8 11 9 16 17 21 26 92 189 205 219 241 252 267 268 259 252 236 231 231 231 231 233 232 233 234 229 222 220 227
120 72 67 57 73 344 264 175 282 255 235 246 238 235 348 15 17 15 11 16 14 13 18 19 20 11 355 267 237 235 251 263 276 277 272 268 254 242 237 234 233 235 235 235 235 234 228 227 227
70 67 15 357 9 268 301 219 253 267 266 224 203 203 33 23 22 13 12 11 8 8 9 10 14 1 346 318 277 257 256 261 264 271 272 273 270 259 249 237 236 237 238 239 237 235 233 231 229
131 128 143 232 266 293 320 248 255 289 318 332 138 120 60 24 16 12 11 11 4 4 5 4 1 348 339 327 304 285 271 264 265 268 268 269 268 266 261 247 241 240 240 240 238 237 237 235 233
125 134 151 132 180 283 290 293 304 6 38 52 62 56 19 358 3 8 10 10 2 358 354 349 345 337 332 326 316 307 297 283 277 278 274 271 269 272 268 260 255 251 246 243 240 240 239 236 235
121 142 104 120 176 281 296 283 259 263 289 6 6 357 338 347 2 6 4 355 345 341 335 338 337 327 319 320 313 306 299 291 285 285 284 280 277 274 273 270 265 261 255 249 245 246 244 241 239
127 128 119 121 159 178 273 275 230 212 211 208 255 308 327 352 350 350 341 333 332 335 337 334 331 327 323 320 313 308 302 298 294 287 283 282 281 278 274 272 270 267 263 256 251 250 247 246 247
178 176 152 162 217 186 206 268 290 168 179 157 178 321 347 355 349 339 334 337 338 335 332 328 323 319 312 309 307 303 300 299 296 291 288 285 283 280 276 275 272 270 266 260 255 257 254 249 249